LZ3VG-1 Weather Reports


time (UTC)temp
F
wind
direction
speed
knots
gust
knots
rain 1hr
in
rain 24hr
in
rain mn
in
humidity
%
barometer
mb
20260507213028 60 34 1.7 6.1 0.00 0.00 0.00 67 1014.9
20260507212529 60 334 0.9 6.1 0.00 0.00 0.00 66 1014.9
20260507212030 59 312 0.9 6.1 0.00 0.00 0.00 68 1014.5
20260507211530 59 298 1.7 3.5 0.00 0.00 0.00 70 1014.7
20260507211028 59 134 0.9 1.7 0.00 0.00 0.00 72 1014.6
20260507210810 59 129 0.0 1.7 0.00 0.00 0.00 72 1014.7
20260507210029 59 155 0.9 1.7 0.00 0.00 0.00 72 1014.2
20260507205530 59 246 0.0 1.7 0.00 0.00 0.00 71 1014.2
20260507205028 59 135 0.0 1.7 0.00 0.00 0.00 71 1014.5
20260507204529 59 317 1.7 1.7 0.00 0.00 0.00 71 1014.2
20260507204031 59 175 0.0 1.7 0.00 0.00 0.00 73 1014.1
20260507203809 59 5 0.9 1.7 0.00 0.00 0.00 72 1014.0
20260507203027 60 48 0.0 1.7 0.00 0.00 0.00 70 1014.0
20260507202528 60 127 0.0 1.7 0.00 0.00 0.00 69 1013.7
20260507202029 60 279 0.9 1.7 0.00 0.00 0.00 66 1013.7
20260507201809 61 135 0.0 1.7 0.00 0.00 0.00 64 1014.0
20260507201308 61 168 1.7 1.7 0.00 0.00 0.00 62 1013.9
20260507200530 61 135 0.0 2.6 0.00 0.00 0.00 63 1014.0
20260507200110 61 151 0.9 3.5 0.00 0.00 0.00 60 1013.6
20260507200059 61 169 0.9 3.5 0.00 0.00 0.00 60 1013.7
20260507195028 61 118 1.7 2.6 0.00 0.00 0.00 62 1013.7
20260507194809 61 224 0.0 2.6 0.00 0.00 0.00 64 1013.6
20260507194029 61 147 1.7 1.7 0.00 0.00 0.00 65 1013.5
20260507193529 62 141 0.0 2.6 0.00 0.00 0.00 62 1013.7
20260507193051 62 32 0.0 2.6 0.00 0.00 0.00 59 1013.5
20260507193043 62 353 0.0 2.6 0.00 0.00 0.00 61 1013.3
20260507192028 62 164 1.7 2.6 0.00 0.00 0.00 59 1013.5
20260507191529 62 190 0.9 2.6 0.00 0.00 0.00 58 1013.5
20260507191027 63 170 1.7 2.6 0.00 0.00 0.00 58 1013.1
20260507190529 63 172 1.7 2.6 0.00 0.00 0.00 57 1013.4
20260507190028 63 139 1.7 1.7 0.00 0.00 0.00 57 1013.2
20260507185530 63 153 0.0 1.7 0.00 0.00 0.00 56 1013.2
20260507185028 63 128 1.7 1.7 0.00 0.00 0.00 56 1012.9
20260507184530 63 150 0.0 1.7 0.00 0.00 0.00 55 1012.8
20260507184028 64 149 0.9 1.7 0.00 0.00 0.00 55 1012.8
20260507183529 64 135 0.0 1.7 0.00 0.00 0.00 55 1012.8
20260507183310 64 163 0.0 3.5 0.00 0.00 0.00 54 1012.7
20260507182528 64 171 0.9 3.5 0.00 0.00 0.00 53 1012.6
20260507182027 65 148 0.9 1.7 0.00 0.00 0.00 54 1012.4
20260507181807 65 142 0.0 1.7 0.00 0.00 0.00 55 1012.3
20260507181307 65 195 0.0 1.7 0.00 0.00 0.00 53 1012.4
20260507180524 65 154 0.0 1.7 0.00 0.00 0.00 53 1012.4
20260507180306 65 168 0.0 1.7 0.00 0.00 0.00 53 1012.2
20260507175513 66 167 0.0 2.6 0.00 0.00 0.00 52 1012.4
20260507175012 66 338 0.0 2.6 0.00 0.00 0.00 52 1012.1
20260507174512 66 218 0.9 3.5 0.00 0.00 0.00 51 1012.3
20260507174012 66 290 0.9 3.5 0.00 0.00 0.00 51 1012.0
20260507173511 66 239 0.9 3.5 0.00 0.00 0.00 51 1011.9
20260507173014 66 281 0.0 3.5 0.00 0.00 0.00 51 1011.9
20260507172512 66 261 0.0 4.3 0.00 0.00 0.00 51 1011.9
20260507172014 66 302 0.9 6.1 0.00 0.00 0.00 51 1011.7
20260507171511 67 312 1.7 6.1 0.00 0.00 0.00 50 1012.1
20260507171059 68 308 3.5 5.2 0.00 0.00 0.00 47 1011.8
20260507171048 67 318 1.7 5.2 0.00 0.00 0.00 50 1011.8
20260507170529 67 310 3.5 5.2 0.00 0.00 0.00 49 1011.9
20260507165756 68 322 0.0 5.2 0.00 0.00 0.00 47 1011.7
20260507165012 68 315 2.6 5.2 0.00 0.00 0.00 46 1012.0
20260507164512 68 312 3.5 5.2 0.00 0.00 0.00 47 1011.8
20260507164014 68 338 1.7 3.5 0.00 0.00 0.00 47 1011.5
20260507163512 69 341 3.5 3.5 0.00 0.00 0.00 45 1011.7
20260507163013 69 269 0.0 3.5 0.00 0.00 0.00 45 1011.4
20260507162512 68 340 0.0 3.5 0.00 0.00 0.00 46 1011.3
20260507162012 68 310 1.7 4.3 0.00 0.00 0.00 45 1011.6
20260507161511 69 286 0.0 5.2 0.00 0.00 0.00 45 1011.4
20260507161013 69 315 0.0 5.2 0.00 0.00 0.00 45 1011.5
20260507160512 69 311 4.3 4.3 0.00 0.00 0.00 45 1011.4
20260507160014 69 280 1.7 5.2 0.00 0.00 0.00 45 1011.4
20260507155512 69 312 3.5 7.0 0.00 0.00 0.00 45 1011.4
20260507155013 69 306 4.3 7.0 0.00 0.00 0.00 44 1011.4
20260507154512 69 300 1.7 7.8 0.00 0.00 0.00 45 1011.5
20260507154253 69 312 4.3 7.8 0.00 0.00 0.00 45 1011.4
20260507153511 70 324 3.5 7.8 0.00 0.00 0.00 45 1011.6
20260507153014 69 319 2.6 8.7 0.00 0.00 0.00 46 1011.4
20260507152512 68 337 6.1 7.8 0.00 0.00 0.00 46 1011.6
20260507152014 68 296 3.5 6.1 0.00 0.00 0.00 46 1011.5
20260507151754 69 305 1.7 6.1 0.00 0.00 0.00 45 1011.2
20260507151013 69 350 1.7 6.1 0.00 0.00 0.00 45 1011.3
20260507150513 69 310 1.7 8.7 0.00 0.00 0.00 44 1011.3
20260507150012 69 301 3.5 8.7 0.00 0.00 0.00 44 1011.2
20260507145746 70 359 1.7 7.8 0.00 0.00 0.00 43 1011.0
20260507145255 70 305 2.6 5.2 0.00 0.00 0.00 41 1011.3
20260507144512 70 312 0.9 5.2 0.00 0.00 0.00 39 1011.2
20260507144014 72 303 1.7 5.2 0.00 0.00 0.00 38 1011.3
20260507143511 72 275 0.0 4.3 0.00 0.00 0.00 37 1011.1
20260507143013 73 143 1.7 3.5 0.00 0.00 0.00 38 1011.3
20260507142513 73 334 0.9 6.1 0.00 0.00 0.00 37 1011.1
20260507142014 73 316 1.7 6.1 0.00 0.00 0.00 38 1011.3
20260507141512 72 331 2.6 6.1 0.00 0.00 0.00 38 1011.2
20260507141035 72 322 1.7 8.7 0.00 0.00 0.00 40 1011.3
20260507141029 72 322 0.9 6.1 0.00 0.00 0.00 39 1011.5
20260507140012 71 321 3.5 8.7 0.00 0.00 0.00 41 1011.2
20260507135511 73 329 4.3 6.1 0.00 0.00 0.00 39 1011.4
20260507135011 72 34 0.9 5.2 0.00 0.00 0.00 38 1011.4
20260507134511 73 206 0.9 5.2 0.00 0.00 0.00 37 1011.4
20260507134252 72 141 0.9 5.2 0.00 0.00 0.00 36 1011.4
20260507133510 72 332 2.6 5.2 0.00 0.00 0.00 36 1011.4
20260507133012 73 53 1.7 3.5 0.00 0.00 0.00 37 1011.2
20260507132511 73 89 1.7 4.3 0.00 0.00 0.00 39 1011.2
20260507132255 73 305 3.5 4.3 0.00 0.00 0.00 38 1011.4
20260507131510 73 199 0.9 5.2 0.00 0.00 0.00 39 1011.4
20260507131011 72 175 1.7 5.2 0.00 0.00 0.00 39 1011.4
20260507130510 73 2 1.7 5.2 0.00 0.00 0.00 39 1011.5
20260507130012 73 169 0.9 5.2 0.00 0.00 0.00 39 1011.3
20260507125504 73 358 0.9 7.8 0.00 0.00 0.00 40 1011.5
20260507125002 72 119 2.6 7.8 0.00 0.00 0.00 41 1011.5
20260507124738 73 317 2.6 3.5 0.00 0.00 0.00 42 1011.4
20260507124003 73 323 1.7 3.5 0.00 0.00 0.00 42 1011.4
20260507123501 74 182 1.7 3.5 0.00 0.00 0.00 41 1011.8
20260507123001 73 112 0.0 4.3 0.00 0.00 0.00 43 1011.7
20260507122500 72 165 1.7 4.3 0.00 0.00 0.00 45 1011.4
20260507122002 71 312 0.9 4.3 0.00 0.00 0.00 46 1011.7
20260507121502 70 135 0.0 5.2 0.00 0.00 0.00 46 1012.0
20260507121001 70 164 2.6 5.2 0.00 0.00 0.00 46 1011.9
20260507120500 70 254 2.6 7.0 0.00 0.00 0.00 46 1011.9
20260507120000 70 135 1.7 7.0 0.00 0.00 0.00 47 1012.0
20260507115739 70 162 1.7 5.2 0.00 0.00 0.00 47 1012.0
20260507115300 69 133 1.7 6.1 0.00 0.00 0.00 48 1011.8
20260507114524 70 121 4.3 6.1 0.00 0.00 0.00 49 1011.9
20260507114517 69 130 0.9 6.1 0.00 0.00 0.00 49 1011.9
20260507113501 70 168 0.9 4.3 0.00 0.00 0.00 48 1012.0
20260507113024 70 116 3.5 5.2 0.00 0.00 0.00 49 1011.9
20260507113017 70 111 1.7 4.3 0.00 0.00 0.00 48 1012.3
20260507112001 70 131 1.7 5.2 0.00 0.00 0.00 50 1012.2
20260507111503 69 107 3.5 7.0 0.00 0.00 0.00 49 1012.2
20260507111002 69 133 2.6 7.0 0.00 0.00 0.00 51 1012.1
20260507110501 70 143 2.6 6.1 0.00 0.00 0.00 49 1011.9
20260507110001 70 163 2.6 5.2 0.00 0.00 0.00 50 1012.1
20260507105501 70 117 2.6 5.2 0.00 0.00 0.00 49 1012.2
20260507105246 69 195 0.9 5.2 0.00 0.00 0.00 51 1012.3
20260507104459 69 120 2.6 3.5 0.00 0.00 0.00 50 1012.1
20260507104242 69 186 1.7 4.3 0.00 0.00 0.00 49 1012.3
20260507103500 68 337 0.9 4.3 0.00 0.00 0.00 51 1012.3
20260507103001 70 299 0.0 5.2 0.00 0.00 0.00 49 1012.2
20260507102500 69 166 3.5 5.2 0.00 0.00 0.00 51 1012.5
20260507102000 69 18 0.9 3.5 0.00 0.00 0.00 53 1012.3
20260507101459 70 10 0.0 3.5 0.00 0.00 0.00 51 1012.1
20260507101002 69 156 1.7 4.3 0.00 0.00 0.00 51 1012.4
20260507100531 67 290 1.7 2.6 0.00 0.00 0.00 54 1012.4
20260507100521 68 320 0.9 4.3 0.00 0.00 0.00 53 1012.2
20260507095500 69 283 2.6 2.6 0.00 0.00 0.00 52 1012.3
20260507094959 68 338 1.7 4.3 0.00 0.00 0.00 52 1012.2
20260507094459 69 161 0.9 4.3 0.00 0.00 0.00 54 1012.3
20260507093959 68 159 1.7 3.5 0.00 0.00 0.00 55 1012.3
20260507093458 68 198 0.0 3.5 0.00 0.00 0.00 54 1012.2
20260507093243 69 175 0.9 2.6 0.00 0.00 0.00 54 1012.0
20260507092457 68 1 0.9 2.6 0.00 0.00 0.00 55 1012.2
20260507092023 67 323 2.6 3.5 0.00 0.00 0.00 55 1011.9
20260507092014 67 347 0.0 2.6 0.00 0.00 0.00 56 1011.9
20260507091238 67 337 1.7 3.5 0.00 0.00 0.00 55 1011.8
20260507090739 68 141 0.9 3.5 0.00 0.00 0.00 56 1012.0
20260507085957 67 74 1.7 3.5 0.00 0.00 0.00 57 1011.7
20260507085457 68 1 0.9 3.5 0.00 0.00 0.00 58 1011.8
20260507085000 67 145 0.0 3.5 0.00 0.00 0.00 60 1011.7
20260507084456 67 341 1.7 5.2 0.00 0.00 0.00 59 1011.6
20260507083956 66 99 0.9 5.2 0.00 0.00 0.00 60 1011.5
20260507083455 67 137 1.7 2.6 0.00 0.00 0.00 61 1011.3
20260507082958 65 171 1.7 3.5 0.00 0.00 0.00 62 1011.4
20260507082456 65 328 0.0 4.3 0.00 0.00 0.00 63 1011.7
20260507081957 65 309 1.7 4.3 0.00 0.00 0.00 63 1011.5
20260507081457 65 84 0.0 3.5 0.00 0.00 0.00 64 1011.4
20260507080956 64 359 1.7 5.2 0.00 0.00 0.00 63 1011.4
20260507080454 64 164 1.7 5.2 0.00 0.00 0.00 66 1011.4
20260507075954 63 334 0.0 4.3 0.00 0.00 0.00 67 1011.4
20260507075736 64 19 0.0 2.6 0.00 0.00 0.00 65 1011.4
20260507075240 64 149 0.0 3.5 0.00 0.00 0.00 64 1011.4
20260507074454 64 22 0.0 3.5 0.00 0.00 0.00 65 1011.6
20260507073955 64 1 0.9 2.6 0.00 0.00 0.00 64 1011.3
20260507073454 64 13 1.7 2.6 0.00 0.00 0.00 64 1011.6
20260507073235 65 16 0.0 5.2 0.00 0.00 0.00 64 1011.6
20260507072456 63 124 0.0 5.2 0.00 0.00 0.00 67 1011.3
20260507072239 64 39 0.0 3.5 0.00 0.00 0.00 67 1011.5
20260507071453 63 71 0.0 3.5 0.00 0.00 0.00 67 1011.4
20260507071236 63 326 0.9 3.5 0.00 0.00 0.00 67 1011.3
20260507070451 63 316 0.0 3.5 0.00 0.00 0.00 67 1011.4
20260507065952 63 13 0.9 2.6 0.00 0.00 0.00 67 1011.5
20260507065451 62 31 0.0 2.6 0.00 0.00 0.00 68 1011.3
20260507064952 62 26 0.9 2.6 0.00 0.00 0.00 68 1011.4
20260507064526 62 291 0.0 3.5 0.00 0.00 0.00 70 1011.1
20260507064516 62 37 0.0 3.5 0.00 0.00 0.00 69 1011.2
20260507063736 62 189 0.9 3.5 0.00 0.00 0.00 71 1011.0
20260507062952 62 322 0.0 2.6 0.00 0.00 0.00 71 1011.0
20260507062449 62 79 0.0 3.5 0.00 0.00 0.00 72 1011.1
20260507061951 60 333 0.0 5.2 0.00 0.00 0.00 73 1011.0
20260507061450 60 321 1.7 6.1 0.00 0.00 0.00 74 1010.7
20260507060951 60 346 1.7 6.1 0.00 0.00 0.00 74 1010.6
20260507060453 60 231 0.0 5.2 0.00 0.00 0.00 75 1010.7
20260507055951 59 99 0.9 5.2 0.00 0.00 0.00 76 1010.7
20260507055450 60 338 1.7 3.5 0.00 0.00 0.00 77 1010.5
20260507054952 60 286 1.7 3.5 0.00 0.00 0.00 77 1010.6
20260507054450 60 198 0.9 4.3 0.00 0.00 0.00 77 1010.6
20260507053951 59 246 1.7 4.3 0.00 0.00 0.00 79 1010.5
20260507053450 59 251 0.0 3.5 0.00 0.00 0.00 79 1010.4
20260507052951 59 235 1.7 3.5 0.00 0.00 0.00 80 1010.5
20260507052734 59 193 1.7 3.5 0.00 0.00 0.00 81 1010.5
20260507051951 58 34 1.7 3.5 0.00 0.00 0.00 81 1010.3
20260507051733 58 273 0.0 6.1 0.00 0.00 0.00 81 1010.2
20260507050952 58 327 0.0 6.1 0.00 0.00 0.00 82 1010.2
20260507050517 58 39 2.6 5.2 0.00 0.00 0.00 82 1009.9
20260507050505 58 35 1.7 5.2 0.00 0.00 0.00 82 1010.1
20260507045449 58 308 0.0 5.2 0.00 0.00 0.00 82 1010.0
20260507044950 57 56 2.6 3.5 0.00 0.00 0.00 83 1010.1
20260507044732 57 160 1.7 2.6 0.00 0.00 0.00 84 1009.7
20260507043951 57 212 0.0 2.6 0.00 0.00 0.00 84 1009.9
20260507043450 56 304 0.0 3.5 0.00 0.00 0.00 84 1009.8
20260507043234 56 254 0.9 3.5 0.00 0.00 0.00 84 1009.8
20260507042448 56 163 0.9 3.5 0.00 0.00 0.00 84 1009.8
20260507041950 56 184 0.9 3.5 0.00 0.00 0.00 84 1009.4
20260507041449 56 161 1.7 3.5 0.00 0.00 0.00 84 1009.7
20260507040950 56 170 0.9 2.6 0.00 0.00 0.00 84 1009.7
20260507040450 55 227 0.9 3.5 0.00 0.00 0.00 85 1009.4
20260507035950 55 113 1.7 3.5 0.00 0.00 0.00 85 1009.3
20260507035449 56 175 1.7 3.5 0.00 0.00 0.00 84 1009.2
20260507034951 55 28 0.9 3.5 0.00 0.00 0.00 85 1009.0
20260507034448 55 202 0.9 3.5 0.00 0.00 0.00 85 1009.2
20260507033950 55 128 0.0 3.5 0.00 0.00 0.00 84 1009.0
20260507033516 55 332 1.7 4.3 0.00 0.00 0.00 84 1008.8
20260507033504 55 162 0.0 4.3 0.00 0.00 0.00 84 1008.8
20260507032451 55 78 2.6 4.3 0.00 0.00 0.00 84 1008.9
20260507031950 55 131 2.6 3.5 0.00 0.00 0.00 84 1008.8
20260507031448 56 118 1.7 3.5 0.00 0.00 0.00 84 1008.6
20260507031010 56 132 1.7 3.5 0.00 0.00 0.00 84 1008.7
20260507031004 56 239 1.7 3.5 0.00 0.00 0.00 84 1008.7
20260507025950 56 176 1.7 2.6 0.00 0.00 0.00 83 1008.5
20260507025449 56 257 0.9 5.2 0.00 0.00 0.00 83 1008.5
20260507024950 56 99 1.7 5.2 0.00 0.00 0.00 82 1008.6
20260507024452 56 160 2.6 5.2 0.00 0.00 0.00 83 1008.5
20260507023950 56 147 1.7 2.6 0.00 0.00 0.00 83 1008.5
20260507023448 56 102 0.0 2.6 0.00 0.00 0.00 83 1008.5
20260507022951 56 147 0.9 1.7 0.00 0.00 0.00 83 1008.3
20260507022449 56 157 0.9 1.7 0.00 0.00 0.00 82 1008.4
20260507021950 56 5 0.0 1.7 0.00 0.00 0.00 82 1007.9
20260507021449 57 263 0.0 3.5 0.00 0.00 0.00 82 1008.1
20260507020950 57 310 1.7 3.5 0.00 0.00 0.00 82 1008.3
20260507020733 57 342 0.9 1.7 0.00 0.00 0.00 81 1008.4
20260507015950 57 166 0.0 1.7 0.00 0.00 0.00 81 1008.4
20260507015449 57 154 0.0 1.7 0.00 0.00 0.00 80 1008.4
20260507014951 57 193 0.0 1.7 0.00 0.00 0.00 80 1008.5
20260507014448 57 224 0.0 1.7 0.00 0.00 0.00 80 1008.4
20260507013950 58 235 0.0 1.7 0.00 0.00 0.00 80 1008.1
20260507013449 58 224 0.0 1.7 0.00 0.00 0.00 80 1008.3
20260507012950 58 114 0.0 2.6 0.00 0.00 0.00 79 1007.9
20260507012450 58 312 0.0 3.5 0.00 0.00 0.00 79 1008.1
20260507011949 58 352 0.0 5.2 0.00 0.00 0.00 79 1007.9
20260507011448 58 348 1.7 5.2 0.00 0.00 0.00 79 1008.1
20260507010953 58 262 1.7 3.5 0.00 0.00 0.00 79 1007.5
20260507010448 58 157 2.6 3.5 0.00 0.00 0.00 79 1007.3
20260507005951 58 19 0.0 3.5 0.00 0.00 0.00 79 1007.2
20260507005449 58 110 0.0 6.1 0.00 0.00 0.00 79 1007.3
20260507005232 58 207 0.0 6.1 0.00 0.00 0.00 79 1007.1
20260507004450 58 252 0.0 3.5 0.00 0.00 0.00 78 1007.2
20260507003950 58 317 2.6 4.3 0.00 0.00 0.00 78 1007.1
20260507003510 59 155 1.7 4.3 0.00 0.00 0.00 78 1006.9
20260507003504 59 148 1.7 4.3 0.00 0.00 0.00 78 1007.1
20260507002448 59 344 0.9 2.6 0.00 0.00 0.00 78 1006.8
20260507002232 59 117 1.7 4.3 0.00 0.00 0.00 78 1006.9
20260507001448 59 304 3.5 4.3 0.00 0.00 0.00 78 1006.8
20260507000949 59 9 0.9 3.5 0.00 0.00 0.00 78 1006.8
20260507000450 59 15 1.7 1.7 0.00 0.00 0.00 79 1006.8
20260506235949 59 15 0.0 1.7 0.00 0.00 0.00 79 1006.9
20260506235733 59 104 0.9 2.6 0.00 0.00 0.00 78 1006.7
20260506234950 59 15 0.0 2.6 0.00 0.00 0.00 78 1006.6
20260506234732 59 171 0.0 2.6 0.00 0.00 0.00 78 1006.5
20260506234230 58 63 0.0 2.6 0.00 0.00 0.00 78 1006.3
20260506233731 59 76 0.0 2.6 0.00 0.00 0.00 77 1006.2
20260506232950 59 251 1.7 3.5 0.00 0.00 0.00 77 1006.3
20260506232449 59 167 2.6 3.5 0.00 0.00 0.00 76 1006.2
20260506231950 59 342 0.9 3.5 0.00 0.00 0.00 76 1006.0
20260506231449 60 135 0.0 3.5 0.00 0.00 0.00 74 1006.1
20260506230952 60 152 0.9 2.6 0.00 0.00 0.00 74 1005.9
20260506230448 60 140 0.0 1.7 0.00 0.00 0.00 74 1006.0
20260506225950 60 134 0.9 1.7 0.00 0.00 0.00 73 1005.9
20260506225730 61 135 0.0 2.6 0.00 0.00 0.00 72 1006.0
20260506225232 61 154 0.9 5.2 0.00 0.00 0.00 72 1006.0
20260506224450 61 179 1.7 7.0 0.00 0.00 0.00 71 1006.0
20260506223949 62 141 0.9 9.6 0.00 0.00 0.00 71 1005.8
20260506223731 62 170 1.7 9.6 0.00 0.00 0.00 70 1005.7
20260506222951 62 126 8.7 9.6 0.00 0.00 0.00 70 1005.8
20260506222510 62 131 3.5 9.6 0.00 0.00 0.00 69 1005.6
20260506222459 62 137 5.2 8.7 0.00 0.00 0.00 70 1005.7
20260506221443 62 137 7.0 9.6 0.00 0.00 0.00 69 1005.6
20260506221223 63 116 0.9 7.8 0.00 0.00 0.00 69 1005.7
20260506220444 63 138 5.2 7.8 0.00 0.00 0.00 69 1005.7
20260506215941 63 137 4.3 7.8 0.00 0.00 0.00 69 1005.8
20260506215443 63 135 3.5 4.3 0.00 0.00 0.00 68 1005.7
20260506214943 63 163 0.9 5.2 0.00 0.00 0.00 68 1005.7
20260506214443 63 114 0.9 7.0 0.00 0.00 0.00 68 1005.6
20260506214225 63 120 2.6 7.0 0.00 0.00 0.00 68 1005.4